Location: Unspecified
(0.0000°N, 0.0000°E)
Time: 18:03:22
(UTC+00:00)

Courier 1B Rocket - Pass Details

Date: 08 October 2020
Orbit: 921 x 1202 km, 28.2° (Epoch: 27 October)

Event Time Altitude Azimuth Distance (km) Brightness Sun altitude
Rises 01:35:38 0° 279° (W) 4,030 - -62.4°
Reaches altitude 10° 01:39:51 10° 300° (WNW) 3,021 - -61.3°
Maximum altitude 01:44:07 16° 335° (NNW) 2,541 - -60.3°
Drops below altitude 10° 01:48:15 10° 11° (N) 2,901 - -59.3°
Sets 01:52:11 0° 32° (NNE) 3,792 - -58.3°
